Tracking 19245 objects as of 18-Aug-2018
HD Live streaming from Space Station
objects crossing your sky now

SCOUT X-4 DEB

Track SCOUT X-4 DEB now!
10-day predictions


NORAD ID: 2088
Int'l Code: 1965-093D
Perigee: 664.4 km
Apogee: 774.2 km
Inclination: 59.7 °
Period: 99.0 minutes
Semi major axis: 7090 km
RCS: 0.0298 m2 (small)
Launch date: November 19, 1965
Source: United States (US)
Launch site: WALLOPS ISLAND (WLPIS)

Note: This is SATELLITE DEBRIS
aabbcc
Your satellite tracking list
Your tracking list is empty




NASA's NSSDC Master Catalog

Two Line Element Set (TLE):
1 02088U 65093D   18228.95145066 -.00000030  00000-0  30432-4 0  9998
2 02088  59.7199  71.5370 0077374 264.7064  94.5147 14.54136478757901
Source of the keplerian elements: AFSPC